Regional Weather Roundup
Issued by NWS Wakefield, VA

Home | Current Version | Previous Version | Text Only | Print | Product List | Glossary On
Versions: 1 2 3 4 5 6 7 8 9 10 11 12 13 14 15 16 17 18 19 20 21 22 23 24 25 26 27 28 29 30 31 32 33 34 35 36 37 38 39 40 41 42 43 44 45 46 47 48 49 50
000
ASUS41 KAKQ 020114
RWRAKQ

REGIONAL WEATHER ROUNDUP
NATIONAL WEATHER SERVICE WAKEFIELD VA
900 PM EDT WED APR 01 2015

Note: "fair" indicates few or no clouds below 12,000 feet with no
significant weather and/or obstructions to visibility. * = Denotes
station may not report precipitation (e.g., rain,snow,etc.),
thunder or fog.

VAZ042-051-052>054-056-020200-
NORTHERN VIRGINIA

CITY           SKY/WX    TMP DP  RH WIND       PRES   REMARKS
WASH NATIONAL  CLEAR     55  30  38 E3        30.22R
DULLES         CLEAR     48  27  44 SE3       30.20R
FORT BELVOIR   CLEAR     47  27  46 CALM      30.21R
QUANTICO       CLEAR     53  30  41 CALM      30.23R
FREDERICKSBRG* CLEAR     51  29  43 CALM      30.21R
STAFFORD*      CLEAR     46  25  44 CALM      30.25R
WARRENTON      CLEAR     41  34  75 CALM      30.20R
CULPEPER*      CLEAR     45  34  65 CALM      30.21R
MANASSAS*      CLEAR     45  30  57 CALM      30.20R
LEESBURG*      CLEAR     48  32  53 CALM      30.21R
WINCHESTER     CLEAR     46  23  39 CALM      30.18R
FRONT ROYAL*   FAIR      50  27  40 CALM      30.18R
LURAY*         FAIR      48  30  49 CALM      30.18R
$$

VAZ048-049-060>072-079>083-020200-
CENTRAL AND SOUTH CENTRAL VIRGINIA

CITY           SKY/WX    TMP DP  RH WIND       PRES   REMARKS
RICHMOND       CLEAR     49  29  46 SE9       30.23R
CHESTERFIELD*  NOT AVBL
PETERSBURG*    CLEAR     51  29  43 SE6       30.23R
HANOVER        CLEAR     44  28  53 E3        30.23R
TAPPAHANNOCK*  CLEAR     48  25  40 SE3       30.23R
QUINTON*       FAIR      48  30  49 SE3       30.23R
CHARLOTTSVILLE CLEAR     54  23  30 E3        30.20R
GORDONSVILLE*  FAIR      46  28  50 CALM      30.20R
ORANGE*        CLEAR     45  32  61 CALM      30.22R
LOUISA*        CLEAR     46  27  46 E3        30.20R
BUMPASS*       FAIR      49  26  41 SE5       30.20R
FARMVILLE*     CLEAR     54  24  30 CALM      30.19R
CREWE*         FAIR      46  27  47 MISG      30.20R
FORT PICKETT*  FAIR      50  24  36 E6        30.20R
CHASE CITY*    FAIR      49  34  56 SE3       30.19R
CLARKSVILLE*   FAIR      52  32  46 SE5       30.18R
SOUTH HILL*    CLEAR     46  31  55 CALM      30.26R
LAWRENCEVILLE* FAIR      49  31  49 E3        30.21R
EMPORIA*       CLEAR     46  30  53 NE5       30.24R
$$

VAZ088>098-020200-
SOUTHEAST VIRGINIA

CITY           SKY/WX    TMP DP  RH WIND       PRES   REMARKS
NORFOLK        CLEAR     46  29  51 SE5       30.25R
VIRGINIA BEACH CLEAR     43  32  65 SE3       30.26R
NORFOLK NAVAL  CLEAR     47  28  47 SE3       30.27R
WEST POINT*    CLEAR     47  31  53 SE5       30.26R
SALUDA*        FAIR      42  31  63 CALM      30.24R
NEWPORT NEWS   CLEAR     44  30  57 CALM      30.26
LANGLEY AFB    CLEAR     45  31  58 S2        30.25R
FORT EUSTIS    CLEAR     46  29  51 SE3       30.23R
WILLIAMSBURG*  CLEAR     46  34  61 SE6       30.26R
HR EXEC AP*    FAIR      37  30  75 E3        30.27R
FRANKLIN*      CLEAR     47  32  55 SE6       30.25R
WAKEFIELD      CLEAR     47  31  53 CALM      30.24R
$$

VAZ020-022-025-037-045-020200-
WEST CENTRAL AND SOUTHWEST VIRGINIA

CITY           SKY/WX    TMP DP  RH WIND       PRES   REMARKS
STAUNTON*      FAIR      45  29  54 SE3       30.20R
WAYNESBORO*    FAIR      51  22  31 SE5       30.18R
HOT SPRINGS VA CLEAR     49   1  13 CALM      30.16R
LYNCHBURG      CLEAR     52  28  39 VRB3      30.18R
DANVILLE       CLEAR     58  31  35 SE5       30.18R
SOUTH BOSTON*  FAIR      55  27  34 SE5       30.18R
MARTINSVILLE   CLEAR     52  32  46 CALM      30.19R
ROANOKE        CLEAR     57  17  21 CALM      30.17R
BLACKSBURG     CLEAR     48  21  34 CALM      30.20R
DUBLIN*        CLEAR     55  15  20 CALM      30.18R
MARION*        CLEAR     48  24  38 CALM      30.18R
HILLSVILLE*    CLEAR     55  20  25 E7        30.17R
RICHLANDS*     FAIR     N/A N/A N/A NE7       30.15R
WISE*          PTCLDY    55   3  12 CALM      30.15R
ABINGDON*      PTCLDY    55  24  29 CALM      30.13R
$$

MDZ021>025-VAZ099-100-020200-
SOUTHERN MARYLAND AND THE DELMARVA PENINSULA

CITY           SKY/WX    TMP DP  RH WIND       PRES   REMARKS
PATUXENT RIVER CLEAR     43  30  60 CALM      30.22R
BAY BRIDGE APT   N/A     46  30  53 CALM      30.22R
LEONARDTOWN    CLEAR     45  30  57 CALM      30.24R
DOVER          CLEAR     46  30  53 SW1       30.18R
GEORGETOWN     CLEAR     42  31  64 CALM      30.23R
EASTON         CLEAR     48  30  49 CALM      30.26R
CAMBRIDGE      CLEAR     43  32  65 CALM      30.23R
SALISBURY      CLEAR     41  27  57 S7        30.24R
OCEAN CITY     CLEAR     42  30  62 S6        30.24R
WALLOPS ISLAND CLEAR     38  30  73 SW8       30.25R
ACCOMACK*      CLEAR     39  32  75 S5        30.25R
$$

NCZ012>017-030>032-020200-
NORTH CENTRAL AND EASTERN NORTH CAROLINA

CITY           SKY/WX    TMP DP  RH WIND       PRES   REMARKS
ROANOKE RAPIDS FAIR      50  30  46 CALM      30.22R
RALEIGH        PTCLDY    55  30  38 SE6       30.20R
ELIZABETH CITY CLEAR     43  32  65 CALM      30.27R
AHOSKIE*       CLEAR     48  33  55 SE6       30.25R
EDENTON*       CLEAR     45  36  70 E6        30.26R
CURRITUCK*     CLEAR     43  33  67 CALM      30.27R
KILL DEVIL HLS CLEAR     41  33  73 E5        30.26R
MANTEO         CLEAR     43  31  62 E6        30.27R
CAPE HATTERAS  CLEAR     39  30  70 E5        30.27R
TARBORO*       FAIR      49  41  72 CALM      30.24R
GOLDSBORO      CLEAR     51  40  64 E3        30.20R
WASHINGTON     CLEAR     50  36  58 E6        30.25R
GREENVILLE     CLEAR     54  32  43 SE7       30.25R
NEW BERN       CLEAR     51  38  60 E6        30.26R
WILMINGTON     CLEAR     53  43  68 E8        30.23R
$$

VAZ048-020200-
ELSEWHERE

CITY           SKY/WX    TMP DP  RH WIND       PRES   REMARKS
HARRISBURG PA  CLEAR     46  31  55 S3        30.19R
BALTIMORE      CLEAR     51  25  36 CALM      30.21R
ANNAPOLIS      CLEAR     47  34  60 CALM      30.22R
ANDREWS AFB    CLEAR     47  28  47 E2        30.20R
PHILADELPHIA   CLEAR     49  20  31 N7        30.22R
HENDERSON NC   CLEAR     52  27  38 SE3       30.19R
GREENSBORO     CLEAR     58  29  33 SE6       30.16R
ROCKY MOUNT    CLEAR     51  32  48 SE5       30.22R
$$

VAZ100-020200-
MARINE

STATION/POSITION TIME  TEMP    WIND        PRES    WAVE   SWELL
                       AIR SEA DIR/SP/G            HT/PER HT/PER
                 (UTC) (F)     (DEG/KT/KT) (MB)    (FT/S) (FT/S)
BRANDYWINE LGT   0000   49 41  330/  3/  4 1022.3R
CAPE MAY NJ      0000   44 46  240/  3/  4 1021.9R
LEWES DE         0000   49 45  210/  2/  3 1022.3R
15NM E FENWICK I 0050   41 41              1023.4R   2/ 7
OCEAN-CITY-INLET 0000   42 43  220/ 12/ 13 1022.9R
WACHAPREAGUE VA  0000   42 51  180/  7/  7 1023.7R
THOMAS POINT MD  0100                        N/A
COVE POINT MD    0000   51     210/  3/  4 1022.4R
SOLOMONS ISLAND  0000      48                N/A
BISHOPS HEAD MD  0006          200/  4/  5   N/A
PINEY POINT MD   0006          160/  5/  5   N/A
CAMBRIDGE MD     0000   52 46  200/  2/  3 1022.3R
LEWISETTA VA     0000   49 49              1022.6R
RAPPAHANNOCK LGT 0000          140/ 10/ 11 1023.7R
STINGRAY PT      0100   45 46  170/ 10/ 12   N/A     0
YORK RVR RNG VA  0000   46     150/  6/  6 1022.9R
YORKTOWN VA      0000   47 47  150/  4/  5 1023.2R
DOMINION TERM VA 0000   48      80/  6/ 11 1023.7R
KIPTOPEKE VA     0000      51  120/  5/  6   N/A
CHES BAY BRIDGE  0000   46 45  110/  5/  7 1023.4R
CAPE HENRY VA    0000   43     130/  7/  8 1022.4R
CHESAPEAKE LGHT  0000   41     130/  7/  8 1024.6R
WILLOUBY STN VA  0000   47     130/  5/  5 1024.2R
S CRANEY ISL VA  0000           70/  5/  6 1023.6R
CAPE HENRY BUOY  0028      42                N/A     3/ 7
1ST LANDING BUOY 0100   44     150/  8/ 10 1024.2R   1/ 4
OFFSHORE WE BUOY 0011      42                N/A     3/ 7   3/ 7
64NM E OF VA BCH 0050   46 53  340/  2/  4 1024.7R   3/ 6   3/ 6
DUCK PIER NC     0000   43 43  120/  7/  8 1023.4R
44056 DUCK FRF   0011      43                N/A     3/ 6
OREGON INLET NC  0000   42 47   40/  5/  8 1024.2R
HATTERAS NC      0000   44 57   50/  6/ 10 1024.5R
CAPE LOOKOUT NC  0100   54      40/ 20/ 21 1024.2R
$$


USA.gov is the U.S. government's official web portal to all federal, state and local government web resources and services.